This is the latest recevied weather packets stored in our database for station/object KC3QJO. If no packets are shown the sender has not sent any weather packets the latest 10 day(s).
| Time | Temp. | Humidity | Pressure | Rain* | Wind** | Luminosity | Snow |
|---|---|---|---|---|---|---|---|
| 1778128254 | 10.56° C | 75% | 1008.9 hPa | 0 mm | - | 0 W/m² | - |
| 1778127952 | 10.56° C | 75% | 1008.9 hPa | 0 mm | - | 0 W/m² | - |
| 1778127052 | 10.56° C | 76% | 1009.1 hPa | 0 mm | - | 0 W/m² | - |
| 1778125851 | 10.56° C | 78% | 1009.3 hPa | 0 mm | - | 0 W/m² | - |
| 1778125557 | 10.56° C | 78% | 1009.2 hPa | 0 mm | - | 0 W/m² | - |
| 1778122251 | 11.11° C | 82% | 1008.8 hPa | 0 mm | - | 0 W/m² | - |
| 1778121655 | 11.11° C | 82% | 1008.9 hPa | 0 mm | - | 0 W/m² | - |
| 1778121355 | 11.11° C | 82% | 1009.1 hPa | 0 mm | - | 0 W/m² | - |
| 1778117753 | 12.22° C | 84% | 1008.8 hPa | 0 mm | - | 0 W/m² | - |
| 1778117460 | 12.22° C | 84% | 1008.8 hPa | 0 mm | - | 0 W/m² | - |
| 1778115951 | 12.78° C | 85% | 1008.3 hPa | 0 mm | - | 0 W/m² | - |
| 1778115662 | 12.78° C | 85% | 1008.2 hPa | 0 mm | - | 0 W/m² | - |
| 1778115351 | 12.78° C | 85% | 1008.2 hPa | 0 mm | - | 0 W/m² | - |
| 1778115053 | 13.33° C | 85% | 1008 hPa | 0 mm | - | 0 W/m² | - |
| 1778114153 | 14.44° C | 86% | 1007.7 hPa | 0 mm | - | 0 W/m² | - |
| 1778110268 | 16.67° C | 90% | 1006.7 hPa | 0 mm | - | 0 W/m² | - |
| 1778109360 | 16.67° C | 90% | 1006.4 hPa | 0 mm | - | 12 W/m² | - |
| 1778106654 | 16.67° C | 92% | 1006.3 hPa | 0 mm | - | 49 W/m² | - |
| 1778106052 | 16.67° C | 92% | 1006.4 hPa | 0 mm | - | 44 W/m² | - |
| 1778099459 | 15° C | 93% | 1005.7 hPa | 0 mm | - | 42 W/m² | - |
| 1778098564 | 15° C | 93% | 1005.8 hPa | 0 mm | - | 39 W/m² | - |
| 1778098251 | 15° C | 93% | 1005.7 hPa | 0 mm | - | 46 W/m² | - |
| 1778096451 | 15° C | 93% | 1005.9 hPa | 0 mm | - | 77 W/m² | - |
| 1778096151 | 15° C | 93% | 1005.9 hPa | 0 mm | - | 104 W/m² | - |
| 1778095859 | 15° C | 93% | 1006 hPa | 0 mm | - | 98 W/m² | - |
* Rain latest hour (hover to see other rain measurements)
** Current wind speed in m/s (hover to see current wind gust speed)